Location: Carroll
(32.4774°N, 95.5202°W)
Time: 21:52:02
(UTC+02:00)

Daily predictions for brighter satellites

Satellite Brightness Start Highest point End
(mag) Time Altitude Azimuth Time Altitude Azimuth Time Altitude Azimuth
GENESIS II 4.2 12:04:22 21° SSW 12:06:53 83° ESE 12:10:47 10° NNE
Meteor 2-10 Rocket 3.5 12:03:22 10° NNW 12:08:15 54° W 12:13:06 10° S
In-Cosmos 22 Rocket 4.1 12:05:20 10° SSW 12:10:45 77° W 12:16:09 10° N
Cosmos 2218 Rocket 4.1 12:04:51 10° N 12:11:02 78° E 12:17:09 10° S
CZ-4B R/B 3.3 12:08:06 10° NNE 12:11:38 53° E 12:15:14 10° S
ATLAS 3B R/B 4.0 12:06:01 10° NNW 12:12:14 42° NE 12:18:23 10° SE
OAO 2 Rocket 3.5 12:12:38 10° WNW 12:17:37 72° N 12:22:32 10° E
SL-19 R/B 4.4 12:16:02 18° SSW 12:17:43 30° WSW 12:20:18 10° NW
Cosmos 1441 Rocket 4.4 12:16:05 10° NW 12:19:20 25° W 12:21:29 16° SW
NOSS 2-2 (E) 4.2 12:17:12 10° S 12:20:49 43° ESE 12:24:39 10° NE
Cosmos 1707 Rocket 4.0 12:17:39 10° N 12:22:06 65° E 12:26:30 10° SSE
Cosmos 2278 Rocket 2.9 12:19:25 15° SW 12:23:39 39° WNW 12:28:56 10° N
CZ-4B R/B 4.4 12:20:47 10° NNE 12:25:44 40° E 12:30:39 10° SSE
Cosmos 1892 2.7 12:23:02 10° SSW 12:26:53 69° W 12:30:44 10° N
DELTA 2 R/B (1) 3.8 12:21:45 10° WNW 12:27:10 51° SSW 12:32:35 10° SE
USA 234 4.2 12:22:58 10° ESE 12:29:13 52° NE 12:35:31 10° NNW
ADEOS II 3.2 12:24:56 10° NNW 12:29:18 27° WNW 12:33:23 11° SW
Cosmos 2297 3.7 12:27:51 10° SSW 12:33:28 89° ESE 12:39:09 10° NNE
Cosmos 1833 Rocket 3.8 12:30:14 10° N 12:35:40 49° ENE 12:41:04 10° SE
Meteor 1-28 Rocket 4.2 12:35:41 10° SSE 12:39:22 52° ENE 12:43:04 10° N
Sakura Rocket 4.1 12:37:16 10° SW 12:40:22 26° SSE 12:43:52 10° ESE
Cosmos 1666 Rocket 3.8 12:38:50 10° SSW 12:43:10 50° W 12:47:29 10° N
Cosmos 1633 Rocket 3.1 12:38:59 10° SSW 12:43:16 63° W 12:47:36 10° N
Lacrosse 5 1.9 12:39:24 10° SW 12:44:28 88° SE 12:49:34 10° NE
NOSS 2-2 (D) 3.5 12:40:52 10° SSW 12:44:41 71° ESE 12:48:42 10° NE
BREEZE-M DEB (TANK) 4.4 12:44:51 10° WNW 12:48:25 17° WSW 12:50:32 10° SSW
Cosmos 1933 Rocket 4.4 12:44:38 10° S 12:48:54 55° E 12:53:08 10° NNE
PSLV R/B 4.3 12:49:16 10° N 12:52:50 41° WNW 12:56:29 10° SW
USA 238 DEB 3.8 12:46:01 10° NNW 12:53:10 78° WSW 13:00:25 10° SSE
USA 238 3.8 12:46:07 10° NNW 12:53:17 79° WSW 13:00:32 10° SSE
Meteor 1-31 Rocket 2.7 12:51:15 10° N 12:55:04 82° WNW 12:58:53 10° SSW
Cosmos 1140 Rocket 4.0 12:50:23 10° S 12:55:30 65° ESE 13:00:37 10° NNE
